• In Deutschland
  • Länderverzeichnis
  • Für 7 Tage
  • Wassertemperatur
  • Satellitenkarten
  • Wetterkarte
  • Widgets
  • user-avatar
    Anmelden

    Stündliche Wetter Fier

    Heute, 19 Januar, Freitag

    Zeit Temperatur Niederschläge Wind Luftdruck Luftfeuchtigkeit
    00:00 +4°C° 0 mm 3 m/S 763 mmHg 52%
    01:00 +4°C° 0 mm 3 m/S 763 mmHg 52%
    02:00 +4°C° 0 mm 4 m/S 762 mmHg 53%
    03:00 +4°C° 0 mm 4 m/S 762 mmHg 54%
    04:00 +4°C° 0 mm 4 m/S 762 mmHg 55%
    05:00 +4°C° 0 mm 4 m/S 762 mmHg 56%
    06:00 +3°C° 0 mm 5 m/S 762 mmHg 56%
    07:00 +3°C° 0 mm 5 m/S 762 mmHg 56%
    08:00 +6°C° 0 mm 5 m/S 761 mmHg 55%
    09:00 +8°C° 0 mm 5 m/S 761 mmHg 54%
    10:00 +10°C° 0 mm 5 m/S 761 mmHg 53%
    11:00 +10°C° 0 mm 5 m/S 761 mmHg 54%
    12:00 +12°C° 0 mm 5 m/S 761 mmHg 55%
    13:00 +13°C° 0 mm 5 m/S 760 mmHg 57%
    14:00 +13°C° 0 mm 5 m/S 760 mmHg 62%
    15:00 +12°C° 0 mm 5 m/S 760 mmHg 67%
    16:00 +10°C° 0 mm 5 m/S 760 mmHg 72%
    17:00 +9°C° 0 mm 5 m/S 760 mmHg 75%
    18:00 +9°C° 0 mm 6 m/S 760 mmHg 78%
    19:00 +8°C° 0 mm 6 m/S 760 mmHg 80%
    20:00 +8°C° 0 mm 6 m/S 760 mmHg 81%
    21:00 +7°C° 0 mm 6 m/S 760 mmHg 83%
    22:00 +7°C° 0 mm 6 m/S 759 mmHg 84%
    23:00 +7°C° 0 mm 6 m/S 759 mmHg 85%

    Morgen, 20 Januar, Samstag

    Zeit Temperatur Niederschläge Wind Luftdruck Luftfeuchtigkeit
    00:00 +7°C° 0 mm 6 m/S 759 mmHg 85%
    01:00 +8°C° 0 mm 6 m/S 759 mmHg 86%
    02:00 +8°C° 0,1 mm 6 m/S 759 mmHg 86%
    03:00 +8°C° 0,1 mm 6 m/S 758 mmHg 86%
    04:00 +8°C° 0,1 mm 6 m/S 758 mmHg 87%
    05:00 +8°C° 0,2 mm 6 m/S 758 mmHg 87%
    06:00 +8°C° 0,2 mm 6 m/S 758 mmHg 87%
    07:00 +8°C° 0,2 mm 5 m/S 758 mmHg 88%
    08:00 +9°C° 0,3 mm 5 m/S 758 mmHg 85%
    09:00 +10°C° 0,3 mm 5 m/S 757 mmHg 83%
    10:00 +12°C° 0,3 mm 5 m/S 757 mmHg 81%
    11:00 +13°C° 0,5 mm 5 m/S 757 mmHg 81%
    12:00 +13°C° 0,5 mm 5 m/S 757 mmHg 80%
    13:00 +13°C° 0,5 mm 5 m/S 757 mmHg 79%
    14:00 +13°C° 0,9 mm 5 m/S 756 mmHg 82%
    15:00 +12°C° 0,9 mm 4 m/S 756 mmHg 86%
    16:00 +12°C° 0,9 mm 4 m/S 756 mmHg 89%
    17:00 +11°C° 0,2 mm 3 m/S 757 mmHg 90%
    18:00 +10°C° 0,2 mm 2 m/S 757 mmHg 91%
    19:00 +11°C° 0,2 mm 1 m/S 758 mmHg 92%
    20:00 +10°C° 0 mm 1 m/S 758 mmHg 92%
    21:00 +10°C° 0 mm 1 m/S 758 mmHg 92%
    22:00 +10°C° 0 mm 1 m/S 758 mmHg 92%
    23:00 +9°C° 0 mm 2 m/S 757 mmHg 91%

    übermorgen, 21 Januar, Sonntag

    Zeit Temperatur Niederschläge Wind Luftdruck Luftfeuchtigkeit
    00:00 +9°C° 0 mm 2 m/S 757 mmHg 91%
    01:00 +9°C° 0 mm 3 m/S 757 mmHg 90%
    02:00 +8°C° 0,3 mm 4 m/S 756 mmHg 90%
    03:00 +8°C° 0,3 mm 4 m/S 756 mmHg 89%
    04:00 +8°C° 0,3 mm 5 m/S 755 mmHg 88%
    05:00 +8°C° 1 mm 5 m/S 754 mmHg 89%
    06:00 +8°C° 1 mm 5 m/S 754 mmHg 89%
    07:00 +8°C° 1 mm 5 m/S 753 mmHg 90%
    08:00 +9°C° 1 mm 5 m/S 753 mmHg 90%
    09:00 +9°C° 1 mm 5 m/S 753 mmHg 91%
    10:00 +9°C° 1 mm 5 m/S 752 mmHg 91%
    11:00 +9°C° 1,3 mm 5 m/S 752 mmHg 92%
    12:00 +9°C° 1,3 mm 5 m/S 751 mmHg 93%
    13:00 +9°C° 1,3 mm 5 m/S 751 mmHg 94%
    14:00 +9°C° 0,9 mm 6 m/S 751 mmHg 93%
    15:00 +9°C° 0,9 mm 6 m/S 751 mmHg 91%
    16:00 +9°C° 0,9 mm 7 m/S 751 mmHg 89%
    17:00 +8°C° 0,5 mm 7 m/S 751 mmHg 90%
    18:00 +6°C° 0,5 mm 7 m/S 752 mmHg 91%
    19:00 +6°C° 0,5 mm 8 m/S 752 mmHg 92%
    20:00 +5°C° 0,1 mm 7 m/S 753 mmHg 92%
    21:00 +5°C° 0,1 mm 7 m/S 753 mmHg 92%
    22:00 +5°C° 0,1 mm 7 m/S 754 mmHg 91%
    23:00 +5°C° 0 mm 7 m/S 754 mmHg 91%

    22 Januar, Montag

    Zeit Temperatur Niederschläge Wind Luftdruck Luftfeuchtigkeit
    00:00 +4°C° 0 mm 7 m/S 755 mmHg 90%
    01:00 +4°C° 0 mm 7 m/S 755 mmHg 89%
    02:00 +4°C° 0 mm 6 m/S 755 mmHg 88%
    03:00 +3°C° 0 mm 6 m/S 756 mmHg 87%
    04:00 +2°C° 0 mm 6 m/S 756 mmHg 86%
    05:00 +2°C° 0 mm 6 m/S 757 mmHg 85%
    06:00 +2°C° 0 mm 5 m/S 757 mmHg 84%
    07:00 +2°C° 0 mm 5 m/S 758 mmHg 82%
    08:00 +3°C° 0 mm 5 m/S 758 mmHg 75%
    09:00 +5°C° 0 mm 5 m/S 759 mmHg 68%
    10:00 +7°C° 0 mm 5 m/S 759 mmHg 61%
    11:00 +7°C° 0 mm 5 m/S 759 mmHg 59%
    12:00 +8°C° 0 mm 5 m/S 760 mmHg 57%
    13:00 +8°C° 0 mm 5 m/S 760 mmHg 54%
    14:00 +8°C° 0 mm 5 m/S 760 mmHg 58%
    15:00 +8°C° 0 mm 4 m/S 760 mmHg 61%
    16:00 +7°C° 0 mm 4 m/S 760 mmHg 64%
    17:00 +6°C° 0 mm 4 m/S 761 mmHg 67%
    18:00 +5°C° 0 mm 4 m/S 761 mmHg 69%
    19:00 +4°C° 0 mm 4 m/S 762 mmHg 71%
    20:00 +4°C° 0 mm 3 m/S 762 mmHg 71%
    21:00 +4°C° 0 mm 3 m/S 762 mmHg 70%
    22:00 +4°C° 0 mm 3 m/S 763 mmHg 70%
    23:00 +4°C° 0 mm 3 m/S 763 mmHg 69%

    23 Januar, Dienstag

    Zeit Temperatur Niederschläge Wind Luftdruck Luftfeuchtigkeit
    00:00 +5°C° 0 mm 2 m/S 763 mmHg 68%
    01:00 +5°C° 0 mm 2 m/S 763 mmHg 67%
    02:00 +5°C° 0 mm 2 m/S 763 mmHg 65%
    03:00 +5°C° 0 mm 2 m/S 763 mmHg 63%
    04:00 +5°C° 0 mm 2 m/S 763 mmHg 61%
    05:00 +5°C° 0 mm 2 m/S 763 mmHg 58%
    06:00 +5°C° 0 mm 2 m/S 763 mmHg 56%
    07:00 +6°C° 0 mm 2 m/S 763 mmHg 54%
    08:00 +8°C° 0 mm 1 m/S 763 mmHg 51%
    09:00 +10°C° 0 mm 1 m/S 764 mmHg 47%
    10:00 +12°C° 0 mm 1 m/S 764 mmHg 44%
    11:00 +11°C° 0,2 mm 1 m/S 764 mmHg 49%
    12:00 +10°C° 0,2 mm 2 m/S 764 mmHg 54%
    13:00 +10°C° 0,2 mm 3 m/S 764 mmHg 58%
    14:00 +9°C° 0,1 mm 2 m/S 764 mmHg 62%
    15:00 +9°C° 0,1 mm 2 m/S 764 mmHg 65%
    16:00 +9°C° 0,1 mm 2 m/S 764 mmHg 68%
    17:00 +8°C° 0 mm 2 m/S 765 mmHg 69%
    18:00 +7°C° 0 mm 2 m/S 765 mmHg 70%
    19:00 +6°C° 0 mm 2 m/S 765 mmHg 72%
    20:00 +6°C° 0 mm 2 m/S 766 mmHg 72%
    21:00 +5°C° 0 mm 3 m/S 766 mmHg 72%
    22:00 +5°C° 0 mm 3 m/S 766 mmHg 72%
    23:00 +5°C° 0 mm 3 m/S 766 mmHg 72%

    24 Januar, Mittwoch

    Zeit Temperatur Niederschläge Wind Luftdruck Luftfeuchtigkeit
    00:00 +6°C° 0 mm 2 m/S 766 mmHg 72%
    01:00 +6°C° 0 mm 2 m/S 767 mmHg 71%
    02:00 +5°C° 0 mm 3 m/S 766 mmHg 71%
    03:00 +5°C° 0 mm 3 m/S 766 mmHg 71%
    04:00 +5°C° 0 mm 3 m/S 766 mmHg 71%
    05:00 +5°C° 0 mm 3 m/S 767 mmHg 72%
    06:00 +5°C° 0 mm 3 m/S 767 mmHg 72%
    07:00 +5°C° 0 mm 3 m/S 767 mmHg 72%
    08:00 +8°C° 0 mm 3 m/S 767 mmHg 68%
    09:00 +10°C° 0 mm 3 m/S 767 mmHg 64%
    10:00 +11°C° 0 mm 3 m/S 768 mmHg 60%
    11:00 +12°C° 0 mm 3 m/S 767 mmHg 58%
    12:00 +13°C° 0 mm 4 m/S 767 mmHg 56%
    13:00 +14°C° 0 mm 4 m/S 767 mmHg 54%
    14:00 +13°C° 0 mm 4 m/S 767 mmHg 59%
    15:00 +12°C° 0 mm 4 m/S 767 mmHg 65%
    16:00 +12°C° 0 mm 5 m/S 767 mmHg 70%
    17:00 +10°C° 0 mm 4 m/S 767 mmHg 72%
    18:00 +8°C° 0 mm 4 m/S 767 mmHg 75%
    19:00 +7°C° 0 mm 4 m/S 768 mmHg 78%
    20:00 +7°C° 0 mm 4 m/S 768 mmHg 78%
    21:00 +7°C° 0 mm 4 m/S 768 mmHg 77%
    22:00 +6°C° 0 mm 4 m/S 768 mmHg 77%
    23:00 +6°C° 0 mm 4 m/S 768 mmHg 77%
    Mehr zeigen